TimeCDT,TemperatureF,Dew PointF,Humidity,Sea Level PressureIn,VisibilityMPH,Wind Direction,Wind SpeedMPH,Gust SpeedMPH,PrecipitationIn,Events,Conditions,WindDirDegrees,DateUTC
12:15 AM,66.2,64.4,94,29.96,10.0,SSW,11.5,-,N/A,,Clear,200,2013-05-10 05:15:00
12:55 AM,66.2,66.2,100,29.94,10.0,WSW,8.1,-,N/A,,Mostly Cloudy,240,2013-05-10 05:55:00
1:15 AM,66.2,66.2,100,29.94,9.0,WSW,9.2,-,0.01,Thunderstorm,Mostly Cloudy,240,2013-05-10 06:15:00
1:35 AM,66.2,66.2,100,29.94,8.0,SW,6.9,-,0.05,Thunderstorm,Mostly Cloudy,220,2013-05-10 06:35:00
1:55 AM,66.2,66.2,100,29.93,8.0,SSW,8.1,-,0.09,Thunderstorm,Overcast,210,2013-05-10 06:55:00
2:15 AM,66.2,64.4,94,29.93,10.0,SW,10.4,-,0.02,,Overcast,230,2013-05-10 07:15:00
2:35 AM,66.2,64.4,94,29.93,10.0,WSW,12.7,-,0.06,,Mostly Cloudy,240,2013-05-10 07:35:00
2:55 AM,64.4,62.6,94,29.93,10.0,WSW,11.5,-,0.12,,Overcast,240,2013-05-10 07:55:00
3:15 AM,64.4,62.6,94,29.92,10.0,WSW,10.4,-,0.04,,Overcast,250,2013-05-10 08:15:00
3:35 AM,64.4,62.6,94,29.91,10.0,WSW,8.1,-,0.06,,Mostly Cloudy,250,2013-05-10 08:35:00
3:55 AM,62.6,60.8,94,29.91,10.0,WSW,8.1,-,0.09,,Overcast,240,2013-05-10 08:55:00
4:15 AM,62.6,60.8,94,29.90,10.0,SSW,5.8,-,0.04,,Overcast,210,2013-05-10 09:15:00
4:35 AM,62.6,62.6,100,29.89,10.0,South,4.6,-,0.09,,Overcast,190,2013-05-10 09:35:00
4:55 AM,62.6,60.8,94,29.88,8.0,South,3.5,-,0.14,,Overcast,170,2013-05-10 09:55:00
5:15 AM,62.6,62.6,100,29.86,8.0,Calm,Calm,-,0.01,,Mostly Cloudy,0,2013-05-10 10:15:00
5:35 AM,62.6,62.6,100,29.86,10.0,Calm,Calm,-,0.01,,Partly Cloudy,0,2013-05-10 10:35:00
5:55 AM,62.6,62.6,100,29.87,10.0,Calm,Calm,-,0.01,,Clear,0,2013-05-10 10:55:00
6:15 AM,62.6,62.6,100,29.88,10.0,Calm,Calm,-,N/A,,Clear,0,2013-05-10 11:15:00
6:35 AM,62.6,62.6,100,29.88,10.0,South,4.6,-,N/A,,Clear,190,2013-05-10 11:35:00
7:15 AM,62.6,60.8,94,29.92,10.0,WNW,4.6,-,N/A,,Scattered Clouds,300,2013-05-10 12:15:00
7:35 AM,64.4,62.6,94,29.93,10.0,NW,3.5,-,0.01,,Mostly Cloudy,320,2013-05-10 12:35:00
8:15 AM,64.4,64.4,100,29.93,10.0,NW,4.6,-,N/A,,Overcast,320,2013-05-10 13:15:00
8:35 AM,64.4,62.6,94,29.93,10.0,NW,4.6,-,N/A,,Overcast,320,2013-05-10 13:35:00
8:55 AM,64.4,62.6,94,29.93,10.0,NNW,5.8,-,N/A,,Mostly Cloudy,330,2013-05-10 13:55:00
9:15 AM,66.2,62.6,88,29.93,10.0,Calm,Calm,-,N/A,,Scattered Clouds,0,2013-05-10 14:15:00
9:35 AM,66.2,64.4,94,29.94,9.0,South,4.6,-,N/A,,Clear,180,2013-05-10 14:35:00
9:55 AM,68.0,62.6,83,29.94,10.0,South,5.8,-,N/A,,Clear,170,2013-05-10 14:55:00
10:15 AM,68.0,62.6,83,29.94,10.0,SSW,4.6,-,N/A,,Partly Cloudy,210,2013-05-10 15:15:00
10:35 AM,69.8,62.6,78,29.93,10.0,South,3.5,-,N/A,,Mostly Cloudy,180,2013-05-10 15:35:00
10:55 AM,69.8,62.6,78,29.93,10.0,WSW,3.5,-,N/A,,Mostly Cloudy,240,2013-05-10 15:55:00
11:15 AM,69.8,62.6,78,29.93,10.0,West,4.6,-,N/A,,Scattered Clouds,280,2013-05-10 16:15:00
11:35 AM,71.6,64.4,78,29.94,10.0,South,5.8,-,N/A,,Scattered Clouds,190,2013-05-10 16:35:00
12:15 PM,71.6,62.6,73,29.94,10.0,SSW,8.1,-,N/A,,Overcast,200,2013-05-10 17:15:00
12:35 PM,73.4,62.6,69,29.93,10.0,SW,10.4,-,N/A,,Mostly Cloudy,230,2013-05-10 17:35:00
12:55 PM,73.4,64.4,73,29.92,10.0,SSW,10.4,-,N/A,,Mostly Cloudy,210,2013-05-10 17:55:00
1:15 PM,73.4,62.6,69,29.91,10.0,SW,6.9,-,N/A,,Scattered Clouds,230,2013-05-10 18:15:00
1:35 PM,75.2,64.4,69,29.91,10.0,SW,6.9,-,N/A,,Partly Cloudy,220,2013-05-10 18:35:00
1:55 PM,75.2,64.4,69,29.90,10.0,WSW,6.9,-,N/A,,Scattered Clouds,240,2013-05-10 18:55:00
2:15 PM,75.2,64.4,69,29.90,10.0,WSW,6.9,-,N/A,,Mostly Cloudy,250,2013-05-10 19:15:00
2:35 PM,75.2,64.4,69,29.89,10.0,WSW,6.9,-,N/A,,Partly Cloudy,240,2013-05-10 19:35:00
2:55 PM,75.2,64.4,69,29.89,10.0,WSW,6.9,-,N/A,,Partly Cloudy,250,2013-05-10 19:55:00
3:15 PM,75.2,62.6,65,29.89,9.0,WSW,9.2,-,N/A,,Scattered Clouds,250,2013-05-10 20:15:00
3:35 PM,75.2,62.6,65,29.88,10.0,West,8.1,-,N/A,,Scattered Clouds,270,2013-05-10 20:35:00
3:55 PM,75.2,62.6,65,29.88,10.0,West,11.5,-,N/A,,Scattered Clouds,270,2013-05-10 20:55:00
4:15 PM,77.0,62.6,61,29.88,10.0,West,11.5,-,N/A,,Clear,280,2013-05-10 21:15:00
4:35 PM,77.0,60.8,57,29.88,10.0,WSW,10.4,-,N/A,,Clear,250,2013-05-10 21:35:00
4:55 PM,78.8,59.0,51,29.88,10.0,West,12.7,-,N/A,,Clear,280,2013-05-10 21:55:00
5:15 PM,78.8,57.2,47,29.89,10.0,WNW,11.5,17.3,N/A,,Clear,290,2013-05-10 22:15:00
5:35 PM,77.0,59.0,54,29.88,10.0,West,11.5,-,N/A,,Clear,270,2013-05-10 22:35:00
5:55 PM,75.2,60.8,61,29.87,10.0,West,9.2,-,N/A,,Clear,280,2013-05-10 22:55:00
6:15 PM,75.2,60.8,61,29.86,10.0,WNW,5.8,-,N/A,,Clear,290,2013-05-10 23:15:00
6:35 PM,73.4,60.8,65,29.87,10.0,West,6.9,-,N/A,,Partly Cloudy,280,2013-05-10 23:35:00
6:55 PM,73.4,60.8,65,29.87,10.0,NW,8.1,-,N/A,,Clear,310,2013-05-10 23:55:00
7:15 PM,73.4,60.8,65,29.88,10.0,NW,8.1,-,N/A,,Clear,310,2013-05-11 00:15:00
7:35 PM,73.4,60.8,65,29.89,10.0,NW,8.1,-,N/A,,Clear,310,2013-05-11 00:35:00
7:55 PM,71.6,62.6,73,29.90,10.0,NW,6.9,-,N/A,,Clear,320,2013-05-11 00:55:00
8:15 PM,71.6,60.8,69,29.90,10.0,NW,6.9,-,N/A,,Clear,320,2013-05-11 01:15:00
8:35 PM,69.8,60.8,73,29.90,10.0,NW,6.9,-,N/A,,Clear,320,2013-05-11 01:35:00
8:55 PM,69.8,60.8,73,29.90,10.0,NW,6.9,-,N/A,,Clear,320,2013-05-11 01:55:00
9:15 PM,68.0,60.8,78,29.91,10.0,NW,10.4,-,N/A,,Scattered Clouds,320,2013-05-11 02:15:00
9:35 PM,69.8,57.2,64,29.93,10.0,NW,11.5,-,N/A,,Mostly Cloudy,320,2013-05-11 02:35:00
9:55 PM,68.0,57.2,68,29.95,10.0,NNW,11.5,-,N/A,,Mostly Cloudy,330,2013-05-11 02:55:00
10:15 PM,66.2,57.2,73,29.96,10.0,NNW,12.7,-,N/A,,Mostly Cloudy,330,2013-05-11 03:15:00
10:35 PM,66.2,57.2,73,29.98,10.0,NNW,10.4,-,N/A,,Mostly Cloudy,330,2013-05-11 03:35:00
10:55 PM,66.2,57.2,73,29.98,10.0,NNW,9.2,-,N/A,,Scattered Clouds,330,2013-05-11 03:55:00
11:15 PM,66.2,57.2,73,29.99,10.0,North,8.1,-,N/A,,Mostly Cloudy,350,2013-05-11 04:15:00
11:35 PM,64.4,57.2,77,30.00,10.0,North,8.1,-,N/A,,Overcast,360,2013-05-11 04:35:00
11:55 PM,64.4,55.4,73,30.01,10.0,North,11.5,-,N/A,,Overcast,350,2013-05-11 04:55:00